Regional Weather Roundup
Issued by NWS

Home | Current Version | Previous Version | Text Only | Print | Product List | Glossary Off
Versions: 1 2 3 4 5 6 7 8 9 10 11 12 13 14 15 16 17 18 19 20 21 22 23 24 25 26 27 28 29 30 31 32 33 34 35 36 37 38 39 40 41 42 43 44 45 46 47 48 49 50

000
ASUS45 KBOU 070310
RWRCO

WEATHER ROUNDUP FOR COLORADO
NATIONAL WEATHER SERVICE DENVER/BOULDER CO
900 PM MDT MON JUL 06 2015

NOTE: "FAIR" INDICATES FEW OR NO CLOUDS BELOW 12000 FEET WITH NO
SIGNIFICANT WEATHER AND/OR OBSTRUCTIONS TO VISIBILITY.

COZ001>005-013-030-031-070400-
...NORTHWEST COLORADO...

CITY           SKY/WX    TMP DP  RH WIND       PRES   REMARKS
CRAIG          HVY RAIN  60  53  77 W7        30.19R
HAYDEN         MOCLDY    68  52  56 E13       30.18S
MEEKER         CLOUDY    65  50  58 SW7       30.20R
MOUNT WERNER   NOT AVBL
STEAMBOAT SPGS MOCLDY    65  55  69 NE3       30.21F
WALDEN         CLOUDY    59  48  67 NE3       30.33R
$$

COZ006>008-011-070400-
...WEST CENTRAL VALLEYS...

CITY           SKY/WX    TMP DP  RH WIND       PRES   REMARKS
GRAND JUNCTION CLOUDY    75  45  34 SW17G24   30.09R
MONTROSE       MOCLDY    76  49  38 W3        30.14S
EAGLE          MOCLDY    70  52  52 NW3       30.22S
RIFLE          CLOUDY    74  56  53 SW5       30.10S
DELTA          MOCLDY    79  49  34 W9        30.10R
NUCLA          NOT AVBL
$$

COZ017>023-064>068-070400-
...SOUTHWEST COLORADO...

CITY           SKY/WX    TMP DP  RH WIND       PRES   REMARKS
DURANGO        CLOUDY    65  55  70 S3        30.19F
CORTEZ         CLEAR     70  53  54 E3        30.15R
PAGOSA SPRINGS CLOUDY    64  52  65 CALM      30.29R
TELLURIDE      CLOUDY    58  47  67 S6        30.41S
WOLF CREEK PAS NOT AVBL
$$

COZ009-010-012-014-032>034-037-058>063-070400-
...CENTRAL COLORADO...

CITY           SKY/WX    TMP DP  RH WIND       PRES   REMARKS
ASPEN          PTCLDY    61  48  62 S9        30.27S
BUENA VISTA    CLOUDY    55  51  86 E8        30.37S
COPPER MTN     MOCLDY    52  43  71 S5        30.59S
BERTHOUD PASS  FAIR      39  30  70 MISG      30.63S
COTTONWOOD PAS NOT AVBL
GUNNISON       MOCLDY    64  45  48 N8        30.30S
KREMMLING      PTCLDY    61  48  63 W5        30.28R
LEADVILLE      PTCLDY    50  47  89 S8        30.44S
MONARCH PASS   FOG       43  41  93 E16       30.69S VSB<1/4
SALIDA         CLOUDY    56  52  86 SE8       30.42S
SUNLIGHT       MOCLDY    54  46  76 CALM      30.53F
WILKERSON PASS CLOUDY    43  43 100 SW6       30.59S
$$

COZ069>075-070400-
...SAN LUIS VALLEY/SANGRE DE CRISTO MOUNTAINS...

CITY           SKY/WX    TMP DP  RH WIND       PRES   REMARKS
ALAMOSA        CLOUDY    56  53  90 E3        30.32S
LA VETA PASS   RAIN      45  43  93 MISG      30.51S VSB 1/4
SAGUACHE       MOCLDY    55  52  88 S3        30.35S
$$

COZ035-036-038>040-070400-
...NORTHERN COLORADO FRONT RANGE...

CITY           SKY/WX    TMP DP  RH WIND       PRES   REMARKS
DENVER INTL AP CLOUDY    62  53  72 E6        30.27R FOG
DMNS CITY PARK   N/A     61  57  88 SW3G12    30.27R
AURORA         CLOUDY    61  54  79 SE5       30.29R
FRONT RANGE AP CLOUDY    61  54  77 E6        30.28R HAZE
ERIE MUNI ARPT CLOUDY    60  59  95 CALM      30.26S
BOULDER MUN AP DRIZZLE   59  59 100 SW5       30.26S
CENTENNIAL     CLOUDY    60  56  86 SE5       30.29R FOG
BROOMFIELD     DRIZZLE   59  57  94 CALM      30.28S
FORT COLLINS   MOCLDY    61  57  88 N3        30.27R
LONGMONT       CLOUDY    62  59  88 CALM      30.27R
$$

COZ041-046-047-076>085-087-088-070400-
...PIKES PEAK/PALMER DIVIDE AND SOUTHERN FOOTHILLS...

CITY           SKY/WX    TMP DP  RH WIND       PRES   REMARKS
COLO. SPRINGS  LGT RAIN  60  54  80 E3        30.31S
A. F. ACADEMY  CLOUDY    57  57  99 SW3       30.32R
ELLICOTT       CLOUDY   N/A N/A N/A E5        30.30S
FALCON         LGT RAIN  56  54  93 E5        30.35R
FORT CARSON    NOT AVBL
LIMON          CLOUDY    61  53  75 E3        30.28R HAZE
MONUMENT HILL  CLOUDY    54  52  94 MISG      30.34S FOG
TRINIDAD       CLOUDY    63  58  83 NE5       30.27R
$$

COZ042>045-048>051-090-091-070400-
...NORTHEAST COLORADO...

CITY           SKY/WX    TMP DP  RH WIND       PRES   REMARKS
GREELEY ARPT   CLOUDY    64  54  68 CALM      30.25R
AKRON          CLOUDY    64  52  64 E8        30.25R HAZE
BURLINGTON     MOCLDY    64  53  67 NE7       30.24R HAZE
WRAY           CLOUDY    68  52  55 NE6       30.22R
STERLING       CLOUDY    66  54  63 E6          N/A  HAZE
HOLYOKE        MOCLDY    68  54  60 NE7       30.23R
FORT MORGAN    CLOUDY    64  52  65 E5        30.25R
$$

COZ086-089-092>099-070400-
...SOUTHEAST COLORADO...

CITY           SKY/WX    TMP DP  RH WIND       PRES   REMARKS
PUEBLO         CLOUDY    67  60  78 NW6       30.23S
LA JUNTA       CLOUDY    69  55  60 N9        30.21R
LAMAR          CLOUDY    71  55  56 NE13      30.15R HAZE
SPRINGFIELD      N/A     63  59  87 NE7       30.19R
$$


USA.gov is the U.S. government's official web portal to all federal, state and local government web resources and services.